Location: Newark
(55.2875°N, 3.1864°W)
Time: 14:36:50
(UTC+00:00)

ISS - Pass Details

Date: 30 January 2020
Orbit: 415 x 423 km, 51.6° (Epoch: 01 March)

Event Time Altitude Azimuth Distance (km) Brightness Sun altitude
Rises 17:22:48 0° 245° (WSW) 2,379 3.0 -5.8°
Reaches altitude 10° 17:24:59 10° 237° (WSW) 1,514 0.8 -6.1°
Maximum altitude 17:28:10 38° 168° (SSE) 664 -2.7 -6.5°
Drops below altitude 10° 17:31:21 10° 98° (E) 1,514 -1.5 -7.0°
Enters shadow 17:31:57 - 95° (E) 1,745 -1.2 -7.0°
